Wind_Speed
60 68 78 87 94 102 109 121 112 99 80 64 58 55 40 30 20 12 1 14 28 37 46 51 65 75 85 101 97 89 91 94 96 105 106 101 98 93 89 85 82 80 80 80 82 84 88
61 68 76 86 93 101 107 117 123 107 89 74 66 56 42 31 25 16 12 9 25 38 48 58 64 73 80 95 94 88 86 86 88 95 107 104 98 94 90 86 84 81 79 77 76 79 83
62 67 76 83 92 99 106 114 126 119 103 84 74 61 49 33 29 21 17 17 18 34 46 54 61 71 81 90 93 96 90 86 84 84 92 102 100 95 94 89 88 86 81 75 74 74 75
61 64 73 80 89 96 105 112 121 127 116 94 80 70 57 40 34 30 19 17 12 14 35 47 55 63 76 83 92 90 94 85 78 75 80 93 102 100 95 91 87 85 83 77 75 73 71
57 63 71 78 85 93 101 109 115 124 128 111 87 79 70 58 46 40 26 21 17 11 14 34 43 50 61 70 71 68 80 80 75 72 70 73 85 96 96 94 90 86 82 81 77 75 73
58 62 70 74 82 89 99 105 109 119 125 128 109 84 78 69 57 42 41 30 24 16 10 20 33 45 53 57 56 51 55 68 72 69 64 62 67 82 91 91 93 90 86 82 80 77 76
54 62 67 69 77 84 92 100 106 113 118 124 126 105 84 76 66 54 39 41 37 28 18 11 10 14 20 22 26 30 39 61 67 65 63 57 54 58 71 82 90 90 86 84 82 82 80
54 58 64 68 70 78 86 94 100 106 112 116 122 125 106 84 71 60 53 48 41 32 24 20 17 15 15 17 19 22 26 43 63 63 60 58 54 51 51 60 73 84 83 83 84 81 80
53 56 61 65 66 73 80 86 94 100 105 110 114 122 127 109 88 72 60 49 40 34 30 25 16 10 9 9 13 21 34 43 54 62 60 60 54 47 46 52 66 76 83 84 82 81 81
47 53 58 63 62 67 72 79 87 93 98 104 107 113 119 121 109 88 71 53 45 40 34 24 17 12 10 8 9 23 34 50 64 65 61 57 51 45 40 42 48 57 65 72 76 77 77
44 50 53 59 59 62 68 72 78 86 91 98 102 106 112 115 118 112 94 72 59 49 41 31 24 18 14 10 7 13 32 50 64 67 61 54 50 45 38 36 35 38 42 44 47 49 53
39 44 45 54 54 57 59 66 69 80 85 90 96 100 105 108 111 115 112 100 79 63 47 44 39 33 22 17 13 13 27 44 56 61 58 53 48 45 40 36 34 34 34 33 34 35 38
34 39 41 49 49 53 58 61 65 72 78 83 88 93 97 100 103 107 112 109 102 85 68 59 52 45 38 29 21 15 16 29 44 51 53 50 47 43 39 37 36 34 34 35 37 40 42
29 33 38 41 49 48 53 56 61 67 71 76 80 83 88 92 94 98 104 102 98 104 90 86 73 60 51 43 37 29 18 12 25 38 44 45 42 39 39 38 38 37 36 36 39 42 47
25 28 33 33 44 48 48 51 55 61 64 70 72 75 81 84 88 90 96 91 95 97 98 102 93 84 75 62 50 41 33 26 16 9 21 30 34 35 36 36 34 35 37 39 44 47 50
22 25 28 27 35 42 44 43 52 54 57 62 66 68 71 76 80 83 88 81 85 89 93 92 92 93 92 81 74 66 53 42 32 24 15 8 7 12 17 21 25 28 31 34 37 39 40
20 22 24 26 24 33 39 41 42 47 50 56 59 63 63 67 72 75 77 76 78 82 82 86 85 86 85 85 88 79 72 67 60 51 41 31 22 16 8 2 3 9 14 18 17 15 14
20 21 22 22 26 29 33 37 38 41 45 49 52 56 57 61 62 67 67 68 72 74 75 76 77 78 77 77 79 77 77 77 72 65 57 51 47 42 37 34 30 26 22 19 17 14 13
23 23 23 19 27 30 33 32 36 33 39 43 44 47 50 55 55 60 61 62 62 67 68 68 69 68 69 68 68 68 69 67 67 66 63 63 59 51 44 38 36 33 29 24 21 18 16
27 25 25 21 22 30 31 30 34 31 34 39 44 44 43 44 48 50 54 56 55 56 60 62 62 63 65 63 61 62 61 61 61 60 60 58 54 52 52 51 49 43 39 32 28 27 24
29 27 24 19 24 25 32 31 35 37 31 41 43 44 44 43 43 44 47 49 50 52 53 52 53 54 55 56 58 59 57 55 54 54 54 53 54 49 44 44 44 42 41 41 39 32 27
27 27 22 24 27 32 30 31 32 38 39 43 43 44 43 43 43 45 47 47 46 46 47 49 47 46 47 49 51 51 52 53 50 51 50 50 49 50 46 45 43 43 45 41 39 37 35
31 32 31 32 33 34 32 36 36 39 41 44 44 44 44 48 50 46 41 44 47 47 46 45 44 45 42 41 44 44 45 47 46 45 45 44 46 46 46 43 41 41 39 37 36 36 34
37 37 36 37 36 35 38 42 42 44 43 44 45 49 53 52 49 49 45 47 52 47 46 46 42 39 43 41 35 36 36 39 40 39 40 41 38 38 38 38 40 42 42 42 40 39 40
48 48 45 42 43 44 49 48 44 45 48 48 49 52 55 55 53 54 55 55 55 54 56 51 46 39 42 40 35 30 30 31 33 35 35 37 36 37 40 36 37 36 35 38 44 41 41
53 51 51 49 51 50 52 52 51 54 54 51 52 54 56 57 55 55 53 55 56 55 57 56 54 48 42 40 37 36 32 34 33 31 34 32 33 35 41 42 40 48 42 42 43 45 45
59 58 57 59 59 57 57 56 56 57 58 55 57 58 58 59 58 55 58 58 61 62 58 56 56 53 50 42 41 41 40 40 40 38 34 37 34 35 42 40 39 50 44 44 44 43 45
65 66 65 63 63 62 60 59 61 62 63 61 61 62 63 61 62 63 64 66 65 65 63 64 62 56 48 56 51 49 48 45 46 47 45 44 40 40 42 48 44 49 44 45 45 46 43
75 71 71 67 64 66 67 66 66 67 66 66 67 69 71 72 69 70 68 69 72 68 68 69 66 62 57 53 47 55 56 57 56 57 55 50 49 49 50 49 54 47 49 44 41 44 43
Wind_Direction
359 2 7 8 8 11 13 17 18 16 18 17 18 14 16 19 15 8 91 195 179 180 190 192 198 201 204 214 215 210 215 217 220 222 223 223 225 223 223 225 227 229 233 236 238 240 241
2 4 8 8 11 12 16 19 21 20 20 21 26 20 21 29 28 40 79 139 183 180 183 190 196 200 207 213 214 213 212 215 219 221 221 222 224 225 225 225 227 229 232 235 238 241 243
0 4 8 9 12 13 20 19 25 25 24 24 30 29 27 29 41 44 78 123 179 188 184 191 196 198 204 210 215 211 211 213 216 218 219 221 224 224 225 226 228 231 230 234 237 242 245
2 6 9 10 12 15 20 22 24 25 27 27 30 35 34 35 46 47 61 103 152 183 193 196 198 203 206 212 216 214 211 212 215 218 219 221 222 225 226 227 227 229 231 233 237 240 244
6 9 12 11 13 17 21 23 24 26 28 29 31 37 38 37 44 47 55 89 120 144 184 199 201 204 211 218 223 220 215 209 212 218 219 221 224 226 227 229 229 229 232 235 237 241 243
8 14 15 12 15 17 22 23 24 25 28 33 32 36 40 40 39 47 58 66 88 107 132 200 208 205 212 219 224 220 213 207 209 215 219 221 226 226 228 230 232 232 233 235 237 241 244
11 15 16 16 14 17 20 23 26 26 27 30 35 36 40 42 41 44 48 67 70 90 115 148 169 199 227 242 236 225 220 206 206 213 216 220 221 226 229 233 235 233 236 238 241 243 247
11 16 18 19 16 15 21 23 23 27 27 28 30 36 39 42 45 46 48 50 56 70 85 116 148 157 172 202 209 190 196 202 205 208 214 218 222 229 232 232 232 231 233 236 241 244 245
9 18 21 20 20 17 19 21 24 25 28 28 28 32 36 40 40 45 45 51 52 55 57 63 65 96 143 168 182 187 185 189 203 206 210 214 217 223 228 231 232 232 234 237 241 245 249
8 15 21 22 20 20 17 20 22 26 25 28 28 29 32 39 43 44 49 53 51 55 50 54 62 62 49 78 151 183 192 195 194 199 207 213 218 223 232 236 236 237 238 242 245 249 251
17 13 15 21 23 20 18 20 19 24 27 26 25 28 31 33 40 44 47 50 54 52 53 56 57 64 70 71 115 163 186 199 199 199 201 209 216 222 231 230 234 237 239 242 244 247 251
17 19 17 22 20 24 15 18 19 22 26 28 27 27 30 32 35 41 46 48 52 55 55 59 63 59 62 81 105 143 182 194 203 204 203 207 214 220 227 231 234 238 240 243 244 246 249
18 20 19 20 21 22 22 18 21 22 25 27 30 28 31 32 31 36 42 45 48 54 58 63 63 62 62 66 79 115 170 195 200 205 207 211 216 222 228 232 236 242 244 245 248 251 253
15 19 23 17 23 22 19 23 21 22 22 27 27 29 30 31 31 33 41 38 45 49 54 57 60 63 65 64 66 70 88 162 201 210 215 219 221 226 232 236 239 245 248 253 255 254 256
1 17 22 16 21 28 22 22 21 23 20 22 26 27 28 30 28 29 38 33 33 40 50 53 54 56 61 64 67 67 70 78 97 166 215 227 231 233 237 242 246 246 250 253 255 259 264
355 5 13 18 19 23 29 23 22 21 19 20 22 24 28 27 28 28 33 31 32 34 37 41 47 52 57 59 61 64 66 70 73 75 85 114 185 222 236 245 251 258 262 266 267 270 270
344 355 4 12 13 26 19 20 20 18 20 16 20 23 22 24 25 26 29 28 29 30 32 36 40 43 50 55 57 61 62 65 67 71 73 76 80 83 87 102 285 274 272 265 269 271 275
330 342 356 8 14 14 12 15 15 19 19 20 19 20 22 20 20 25 25 26 26 28 30 34 35 36 43 47 50 57 59 60 62 64 64 67 68 69 70 72 71 70 68 64 53 48 39
310 322 340 349 347 353 2 19 17 20 15 14 17 16 17 17 21 19 22 23 25 24 26 26 28 32 36 41 45 48 49 54 58 58 58 60 60 60 60 61 62 63 62 61 57 54 48
294 306 317 338 336 346 354 5 7 11 7 10 8 9 16 17 18 17 19 20 20 21 21 21 24 26 25 28 32 35 39 43 47 49 51 51 52 53 53 54 54 52 48 48 46 41 36
290 299 308 320 322 336 340 351 353 353 356 358 3 1 1 3 6 10 11 17 18 15 15 18 19 20 22 21 21 23 26 30 35 39 38 42 42 46 49 49 47 46 43 42 41 39 36
279 287 298 306 313 317 327 333 333 340 343 346 354 355 2 4 1 0 359 6 6 10 10 7 11 11 14 17 16 16 16 19 23 23 26 27 31 32 35 36 36 39 39 35 32 30 27
275 281 289 296 301 309 315 320 321 324 327 333 341 347 351 351 354 356 360 360 356 353 358 1 359 1 4 5 6 9 8 9 9 13 16 19 18 18 21 21 24 25 28 29 25 22 19
275 279 283 287 294 298 303 310 310 312 318 322 328 330 336 338 341 344 350 350 351 355 351 346 352 347 351 352 351 357 359 359 359 2 3 5 9 10 10 11 10 9 9 10 13 14 13
275 276 279 282 289 294 295 300 299 304 312 316 317 320 325 329 332 334 335 337 340 341 342 347 348 340 339 341 340 339 342 346 347 348 350 353 354 353 355 356 358 358 359 358 357 2 360
274 272 274 278 284 290 295 293 296 303 306 306 309 312 316 319 323 325 329 330 332 332 336 336 338 343 341 329 328 332 328 333 333 333 333 340 340 340 342 344 343 346 346 346 349 349 349
269 270 273 278 281 283 289 289 290 297 300 302 303 305 308 313 315 318 319 321 323 325 327 330 331 332 335 333 321 324 321 325 325 322 324 323 326 331 330 332 330 335 335 337 338 339 341
270 272 274 275 277 280 282 286 286 290 293 295 298 301 304 306 308 310 313 314 316 320 320 323 324 326 321 325 328 323 317 311 314 316 320 315 317 322 323 322 320 326 326 326 329 330 332
266 269 271 273 274 275 278 280 282 286 289 290 294 298 300 300 302 305 307 310 313 312 314 315 316 317 316 319 308 316 317 311 309 306 306 305 308 313 316 313 318 318 318 317 318 317 322
Height
10721 10707 10689 10669 10647 10620 10587 10550 10510 10478 10452 10431 10411 10395 10384 10373 10366 10364 10366 10371 10374 10380 10393 10411 10420 10431 10451 10454 10472 10500 10516 10535 10555 10574 10591 10607 10620 10631 10644 10656 10665 10675 10681 10689 10698 10704 10712
10719 10704 10687 10667 10646 10621 10591 10558 10521 10489 10460 10437 10416 10402 10391 10380 10370 10367 10368 10373 10375 10381 10393 10401 10414 10428 10441 10448 10470 10490 10510 10529 10547 10563 10580 10597 10611 10627 10636 10646 10656 10664 10670 10678 10688 10694 10700
10718 10703 10685 10667 10646 10623 10596 10566 10533 10501 10472 10447 10426 10411 10400 10389 10379 10373 10372 10375 10378 10383 10394 10404 10414 10427 10435 10444 10456 10479 10501 10518 10535 10552 10569 10586 10600 10612 10624 10634 10645 10654 10664 10672 10679 10685 10690
10717 10702 10685 10667 10647 10626 10601 10575 10547 10516 10484 10459 10440 10422 10411 10400 10390 10382 10379 10382 10386 10391 10397 10408 10417 10426 10434 10441 10450 10475 10493 10517 10534 10549 10562 10574 10588 10600 10615 10628 10636 10647 10656 10664 10670 10676 10681
10718 10702 10686 10668 10650 10631 10609 10585 10561 10533 10502 10476 10455 10436 10421 10412 10403 10397 10390 10392 10393 10398 10408 10412 10424 10433 10437 10441 10454 10476 10496 10521 10534 10547 10559 10573 10585 10598 10610 10620 10630 10641 10651 10657 10662 10668 10672
10718 10704 10689 10672 10654 10636 10616 10595 10574 10551 10525 10498 10474 10455 10438 10427 10420 10414 10407 10405 10404 10406 10415 10422 10425 10434 10439 10445 10462 10486 10502 10522 10535 10545 10558 10570 10580 10592 10603 10613 10622 10631 10638 10647 10654 10658 10663
10719 10707 10691 10677 10660 10643 10625 10607 10588 10567 10545 10521 10500 10479 10458 10444 10437 10432 10423 10419 10421 10425 10426 10430 10438 10449 10454 10462 10472 10487 10502 10518 10530 10541 10553 10563 10574 10584 10593 10602 10611 10623 10633 10641 10645 10650 10655
10722 10709 10696 10682 10667 10650 10635 10619 10601 10583 10563 10543 10524 10503 10481 10467 10456 10449 10439 10429 10431 10437 10444 10447 10450 10452 10457 10464 10469 10481 10493 10509 10523 10533 10546 10559 10569 10578 10586 10593 10601 10612 10621 10627 10632 10638 10643
10724 10713 10701 10687 10673 10658 10644 10629 10614 10596 10581 10563 10546 10526 10508 10485 10471 10458 10449 10448 10446 10447 10446 10449 10454 10459 10464 10467 10471 10479 10486 10493 10510 10526 10539 10550 10561 10570 10578 10585 10591 10600 10609 10618 10624 10630 10636
10725 10715 10704 10692 10680 10667 10653 10640 10626 10611 10595 10580 10564 10549 10531 10516 10497 10480 10468 10463 10460 10461 10458 10459 10462 10465 10466 10469 10476 10481 10489 10496 10505 10518 10534 10548 10560 10570 10577 10582 10588 10595 10605 10612 10618 10624 10627
10727 10718 10708 10697 10686 10675 10663 10650 10637 10624 10610 10595 10581 10567 10550 10536 10525 10507 10493 10482 10475 10474 10474 10473 10472 10472 10474 10476 10480 10485 10491 10499 10509 10518 10532 10546 10556 10566 10573 10579 10586 10593 10599 10605 10610 10613 10616
10729 10720 10712 10702 10692 10682 10672 10660 10648 10636 10623 10612 10598 10585 10571 10558 10547 10534 10519 10511 10500 10493 10493 10486 10483 10482 10483 10482 10485 10488 10493 10498 10508 10520 10532 10542 10553 10562 10570 10577 10584 10590 10595 10599 10602 10604 10607
10730 10723 10716 10707 10698 10688 10678 10669 10659 10648 10636 10625 10615 10604 10593 10580 10571 10559 10542 10537 10530 10524 10511 10502 10499 10497 10497 10495 10495 10497 10501 10507 10515 10524 10533 10542 10551 10561 10568 10575 10580 10584 10588 10592 10595 10596 10598
10731 10724 10718 10712 10703 10694 10685 10676 10668 10659 10649 10639 10629 10621 10611 10601 10595 10583 10560 10562 10565 10547 10531 10520 10512 10510 10509 10509 10509 10510 10512 10516 10523 10531 10539 10546 10554 10561 10567 10572 10577 10581 10584 10587 10586 10586 10586
10732 10725 10719 10714 10707 10700 10691 10683 10675 10668 10660 10652 10643 10634 10623 10615 10607 10598 10579 10589 10579 10568 10556 10548 10537 10531 10526 10521 10520 10521 10523 10526 10531 10536 10542 10548 10554 10560 10565 10569 10573 10575 10577 10577 10576 10577 10576
10731 10726 10720 10716 10711 10703 10696 10689 10682 10675 10668 10661 10652 10644 10635 10628 10621 10614 10597 10608 10598 10586 10577 10570 10564 10558 10552 10545 10540 10537 10535 10536 10538 10542 10545 10550 10555 10559 10562 10565 10568 10569 10570 10570 10569 10566 10565
10729 10726 10720 10715 10711 10706 10700 10695 10688 10681 10675 10668 10661 10655 10647 10641 10634 10627 10622 10619 10611 10603 10596 10586 10582 10577 10574 10568 10564 10559 10557 10555 10554 10554 10554 10556 10558 10561 10562 10563 10564 10564 10564 10563 10561 10560 10558
10726 10724 10720 10715 10711 10707 10703 10698 10692 10686 10680 10675 10669 10664 10659 10652 10646 10640 10636 10631 10625 10617 10611 10604 10599 10594 10590 10586 10582 10578 10575 10573 10571 10570 10569 10568 10568 10568 10568 10567 10566 10565 10564 10563 10562 10561 10559
10723 10721 10718 10715 10710 10707 10703 10699 10695 10689 10686 10680 10674 10670 10665 10661 10656 10651 10646 10641 10636 10630 10625 10620 10616 10611 10606 10603 10599 10595 10592 10589 10586 10584 10583 10580 10578 10576 10575 10573 10571 10569 10567 10565 10564 10562 10561
10717 10717 10714 10712 10709 10706 10702 10698 10694 10691 10687 10683 10680 10674 10670 10666 10661 10658 10654 10649 10644 10639 10636 10631 10626 10622 10619 10615 10611 10608 10605 10602 10598 10596 10593 10590 10587 10585 10582 10580 10577 10574 10571 10569 10566 10563 10562
10712 10711 10709 10708 10705 10703 10699 10696 10692 10689 10686 10684 10680 10678 10674 10669 10665 10662 10658 10655 10651 10647 10643 10638 10635 10631 10628 10624 10620 10616 10613 10611 10608 10604 10601 10598 10596 10594 10591 10587 10584 10582 10579 10576 10573 10569 10564
10707 10705 10704 10703 10701 10700 10697 10695 10691 10688 10685 10682 10679 10676 10675 10673 10669 10664 10660 10657 10654 10652 10649 10645 10640 10636 10632 10629 10626 10621 10618 10614 10612 10609 10606 10602 10599 10596 10593 10590 10587 10584 10580 10576 10573 10569 10565
10699 10699 10698 10697 10695 10694 10692 10691 10689 10686 10683 10680 10678 10675 10673 10671 10668 10666 10663 10659 10656 10652 10650 10647 10645 10641 10636 10631 10628 10625 10622 10619 10616 10612 10608 10605 10601 10598 10595 10592 10589 10585 10581 10577 10573 10568 10564
10691 10691 10690 10689 10689 10688 10686 10684 10683 10679 10678 10676 10674 10671 10669 10668 10666 10664 10661 10659 10657 10655 10651 10647 10644 10640 10638 10635 10630 10626 10623 10620 10617 10613 10610 10605 10603 10600 10597 10593 10589 10585 10581 10577 10574 10568 10563
10681 10682 10683 10682 10681 10680 10679 10678 10675 10675 10673 10670 10667 10665 10663 10661 10660 10658 10656 10654 10652 10650 10648 10645 10644 10639 10635 10633 10630 10626 10622 10619 10615 10611 10609 10606 10602 10596 10594 10590 10588 10585 10580 10575 10570 10566 10561
10669 10670 10671 10672 10672 10671 10669 10668 10667 10666 10666 10665 10663 10660 10658 10655 10653 10650 10649 10648 10646 10644 10642 10640 10637 10635 10632 10629 10626 10623 10619 10615 10612 10609 10605 10603 10600 10595 10590 10585 10581 10578 10573 10568 10564 10558 10554
10656 10657 10659 10659 10660 10659 10659 10658 10657 10656 10656 10655 10653 10652 10651 10648 10646 10644 10642 10640 10639 10638 10636 10634 10630 10627 10625 10622 10620 10616 10614 10610 10606 10601 10600 10595 10594 10590 10584 10581 10576 10571 10567 10562 10558 10554 10547
10643 10644 10646 10646 10646 10647 10647 10646 10645 10645 10644 10644 10643 10640 10639 10639 10638 10635 10633 10631 10629 10628 10626 10625 10622 10620 10616 10614 10611 10608 10604 10602 10599 10594 10592 10588 10586 10584 10579 10570 10567 10564 10559 10554 10549 10543 10540
10627 10629 10632 10633 10633 10634 10634 10634 10633 10632 10633 10632 10631 10628 10626 10626 10626 10624 10622 10621 10620 10617 10615 10613 10611 10609 10606 10603 10600 10597 10595 10592 10588 10583 10580 10577 10577 10576 10572 10564 10561 10555 10550 10547 10541 10534 10530